Monument Pass, CO

9:15 AM MDT on May 25, 2017 (GMT -0600)
Monument Pass

Weather History for KMNH - February, 2013

Change the Weather History Date:

Monday, February 18, 2013

  Actual Average Record
Temperature  
Mean Temperature 24 °F -  
Max Temperature 33 °F - 55 °F (2016)
Min Temperature 15 °F - -9 °F (2006)
Degree Days  
Heating Degree Days 41    
Month to date heating degree days  
Cooling Degree Days 0    
Month to date cooling degree days  
Moisture  
Dew Point 8 °F    
Average Humidity 59    
Maximum Humidity 100    
Minimum Humidity 18    
Precipitation  
Precipitation 0.00 in - 0.00 in (2017)
Sea Level Pressure  
Sea Level Pressure 29.91 in    
Wind  
Wind Speed 9 mph (North)    
Max Wind Speed 16 mph    
Max Gust Speed 23 mph    
Visibility 9 miles    
Events Snow    
T = Trace of Precipitation, MM = Missing Value Source: NWS Daily Summary

Daily Weather History Graph

Daily Weather History Graph

Search for Another Location

Airport or City:

Trip Planner

Search our weather history database for the weather conditions in past years. The results will help you decide how hot, cold, wet, or windy it might be!

Date:

Astronomy

Feb. 18, 2013 Rise Set
Actual Time 6:46 AM MST 5:39 PM MST
Civil Twilight 6:18 AM MST 6:06 PM MST
Nautical Twilight 5:47 AM MST 6:37 PM MST
Astronomical Twilight 5:16 AM MST 7:08 PM MST
Moon 11:28 AM MST (2/18) 1:26 AM MST (2/18)
Length of Visible Light 11h 47m
Length of Day
10h 53m
First Quarter, 59% of the Moon is Illuminated
Feb 18
First Quarter
Feb 25
Full
Mar 4
Last Quarter
Mar 11
New
Mar 19
First Quarter

Hourly Weather History & Observations

Time (MST) Temp. Windchill Dew Point Humidity Pressure Visibility Wind Dir Wind Speed Gust Speed Precip Events Conditions
12:14 AM 23.0 °F 13.1 °F 21.2 °F 93% 29.74 in 10.0 mi NE 9.2 mph - N/A   Overcast
12:34 AM 23.0 °F 12.4 °F 19.4 °F 86% 29.74 in 10.0 mi NNE 10.4 mph 20.7 mph N/A   Overcast
12:53 AM 21.2 °F 9.5 °F 17.6 °F 86% 29.75 in 10.0 mi NNE 11.5 mph 16.1 mph N/A   Scattered Clouds
1:14 AM 19.4 °F 8.6 °F 17.6 °F 93% 29.75 in 10.0 mi North 9.2 mph - N/A   Clear
1:34 AM 19.4 °F 9.5 °F 15.8 °F 86% 29.76 in 10.0 mi North 8.1 mph - N/A   Clear
1:54 AM 19.4 °F 7.9 °F 15.8 °F 86% 29.77 in 10.0 mi NNE 10.4 mph - N/A   Clear
2:14 AM 19.4 °F 7.9 °F 17.6 °F 93% 29.77 in 10.0 mi NNE 10.4 mph 16.1 mph N/A Snow Light Snow
2:33 AM 19.4 °F 5.5 °F 17.6 °F 93% 29.76 in 3.0 mi NNE 15.0 mph 19.6 mph N/A Snow Light Snow
2:54 AM 19.4 °F 7.9 °F 17.6 °F 93% 29.78 in 2.5 mi NNE 10.4 mph - N/A Snow Light Snow
3:14 AM 19.4 °F 6.0 °F 17.6 °F 93% 29.78 in 2.5 mi North 13.8 mph - N/A Snow Light Snow
3:34 AM 19.4 °F 6.6 °F 17.6 °F 93% 29.78 in 7.0 mi North 12.7 mph 18.4 mph N/A   Overcast
3:53 AM 19.4 °F 8.6 °F 17.6 °F 93% 29.79 in 4.0 mi North 9.2 mph - N/A Snow Light Snow
4:14 AM 19.4 °F 8.6 °F 17.6 °F 93% 29.79 in 3.0 mi North 9.2 mph - N/A Snow Light Snow
4:34 AM 19.4 °F 7.9 °F 17.6 °F 93% 29.81 in 5.0 mi North 10.4 mph - N/A Snow Light Snow
4:53 AM 19.4 °F 7.9 °F 17.6 °F 93% 29.81 in 10.0 mi North 10.4 mph - N/A   Overcast
5:14 AM 19.4 °F 8.6 °F 17.6 °F 93% 29.82 in 10.0 mi North 9.2 mph - N/A Snow Light Snow
5:34 AM 19.4 °F 8.6 °F 17.6 °F 93% 29.82 in 10.0 mi North 9.2 mph - N/A Snow Light Snow
5:54 AM 19.4 °F 8.6 °F 17.6 °F 93% 29.84 in 10.0 mi North 9.2 mph - N/A Snow Light Snow
6:14 AM 19.4 °F 8.6 °F 17.6 °F 93% 29.84 in 10.0 mi NNW 9.2 mph - N/A   Overcast
6:34 AM 19.4 °F 12.8 °F 17.6 °F 93% 29.85 in 10.0 mi NNW 4.6 mph - N/A   Overcast
6:54 AM 19.4 °F 7.9 °F 17.6 °F 93% 29.87 in 10.0 mi North 10.4 mph - N/A   Overcast
7:14 AM 17.6 °F 5.7 °F 17.6 °F 100% 29.89 in 7.0 mi North 10.4 mph - N/A   Overcast
7:34 AM 19.4 °F 9.5 °F 17.6 °F 93% 29.90 in 10.0 mi North 8.1 mph - N/A   Overcast
7:54 AM 19.4 °F 10.4 °F 17.6 °F 93% 29.91 in 10.0 mi NNW 6.9 mph - N/A   Mostly Cloudy
8:14 AM 21.2 °F 12.6 °F 17.6 °F 86% 29.92 in 10.0 mi NNW 6.9 mph - N/A   Scattered Clouds
8:34 AM 23.0 °F 15.8 °F 17.6 °F 80% 29.93 in 10.0 mi NW 5.8 mph - N/A   Clear
8:54 AM 23.0 °F 17.0 °F 19.4 °F 86% 29.93 in 10.0 mi NNW 4.6 mph - N/A   Clear
9:14 AM 24.8 °F 20.5 °F 19.4 °F 80% 29.94 in 10.0 mi North 3.5 mph - N/A   Clear
9:34 AM 26.6 °F 21.2 °F 17.6 °F 69% 29.94 in 10.0 mi West 4.6 mph - N/A   Clear
9:54 AM 28.4 °F 21.2 °F 15.8 °F 59% 29.94 in 10.0 mi NW 6.9 mph - N/A   Clear
10:14 AM 28.4 °F 19.7 °F 12.2 °F 51% 29.93 in 10.0 mi NW 9.2 mph - N/A   Clear
10:33 AM 28.4 °F 18.0 °F 12.2 °F 51% 29.94 in 10.0 mi NNW 12.7 mph - N/A   Clear
10:53 AM 30.2 °F 21.9 °F 10.4 °F 44% 29.94 in 10.0 mi WNW 9.2 mph - N/A   Clear
11:14 AM 30.2 °F 18.9 °F 10.4 °F 44% 29.94 in 10.0 mi NW 16.1 mph 19.6 mph N/A   Clear
11:33 AM 32.0 °F 22.1 °F 5.0 °F 32% 29.94 in 10.0 mi NW 13.8 mph 19.6 mph N/A   Clear
11:54 AM 32.0 °F 24.2 °F 5.0 °F 32% 29.93 in 10.0 mi WNW 9.2 mph 18.4 mph N/A   Clear
12:14 PM 32.0 °F 25.6 °F 5.0 °F 32% 29.92 in 10.0 mi NW 6.9 mph - N/A   Scattered Clouds
12:34 PM 32.0 °F 21.2 °F 3.2 °F 30% 29.92 in 10.0 mi NW 16.1 mph 19.6 mph N/A   Scattered Clouds
12:53 PM 33.8 °F 25.8 °F 3.2 °F 28% 29.91 in 10.0 mi NW 10.4 mph - N/A   Scattered Clouds
1:13 PM 33.8 °F 25.3 °F 1.4 °F 25% 29.91 in 10.0 mi NW 11.5 mph 23.0 mph N/A   Clear
1:34 PM 33.8 °F 24.3 °F 1.4 °F 25% 29.90 in 10.0 mi NW 13.8 mph 17.3 mph N/A   Clear
1:54 PM 33.8 °F 24.3 °F -0.4 °F 23% 29.90 in 10.0 mi NW 13.8 mph 19.6 mph N/A   Clear
2:14 PM 33.8 °F 25.8 °F -4.0 °F 20% 29.91 in 10.0 mi WNW 10.4 mph 20.7 mph N/A   Clear
2:34 PM 33.8 °F 26.4 °F -5.8 °F 18% 29.91 in 10.0 mi NNW 9.2 mph 18.4 mph N/A   Clear
2:54 PM 33.8 °F 26.4 °F -5.8 °F 18% 29.91 in 10.0 mi NW 9.2 mph - N/A   Clear
3:14 PM 33.8 °F 30.8 °F -4.0 °F 20% 29.91 in 10.0 mi NNE 3.5 mph - N/A   Clear
3:34 PM 33.8 °F 28.6 °F -5.8 °F 18% 29.92 in 10.0 mi NNW 5.8 mph - N/A   Clear
3:54 PM 33.8 °F 28.6 °F -4.0 °F 20% 29.93 in 10.0 mi North 5.8 mph - N/A   Clear
4:14 PM 33.8 °F 27.7 °F -4.0 °F 20% 29.93 in 10.0 mi North 6.9 mph - N/A   Clear
4:34 PM 32.0 °F 23.0 °F -2.2 °F 23% 29.94 in 10.0 mi North 11.5 mph - N/A   Clear
4:54 PM 32.0 °F 24.8 °F -0.4 °F 25% 29.95 in 10.0 mi North 8.1 mph - N/A   Clear
5:14 PM 30.2 °F 20.2 °F -0.4 °F 27% 29.95 in 10.0 mi NNW 12.7 mph - N/A   Clear
5:34 PM 28.4 °F 18.5 °F -0.4 °F 29% 29.97 in 10.0 mi North 11.5 mph - N/A   Clear
5:54 PM 26.6 °F 16.8 °F -0.4 °F 31% 29.97 in 10.0 mi NNW 10.4 mph - N/A   Clear
6:14 PM 24.8 °F 16.1 °F -0.4 °F 34% 29.98 in 10.0 mi NNW 8.1 mph - N/A   Clear
6:34 PM 23.0 °F 13.9 °F -0.4 °F 36% 29.99 in 10.0 mi NW 8.1 mph - N/A   Clear
6:54 PM 19.4 °F 12.8 °F 1.4 °F 46% 30.00 in 10.0 mi South 4.6 mph - N/A   Clear
7:14 PM 23.0 °F - -0.4 °F 36% 30.01 in 10.0 mi Calm Calm - N/A   Clear
7:34 PM 21.2 °F 14.9 °F 1.4 °F 42% 30.01 in 10.0 mi East 4.6 mph - N/A   Clear
7:54 PM 19.4 °F 11.5 °F 1.4 °F 46% 30.01 in 10.0 mi East 5.8 mph - N/A   Clear
8:14 PM 17.6 °F 9.3 °F 3.2 °F 53% 30.01 in 10.0 mi East 5.8 mph - N/A   Clear
8:34 PM 17.6 °F 8.2 °F 3.2 °F 53% 30.01 in 10.0 mi SE 6.9 mph - N/A   Clear
8:54 PM 17.6 °F 9.3 °F 3.2 °F 53% 30.01 in 10.0 mi SE 5.8 mph - N/A   Clear
9:14 PM 17.6 °F 9.3 °F 3.2 °F 53% 30.01 in 10.0 mi SE 5.8 mph - N/A   Clear
9:34 PM 19.4 °F 10.4 °F 3.2 °F 49% 30.02 in 10.0 mi SE 6.9 mph - N/A   Clear
9:54 PM 19.4 °F 11.5 °F 1.4 °F 46% 30.02 in 10.0 mi SSE 5.8 mph - N/A   Clear
10:14 PM 17.6 °F 6.4 °F 3.2 °F 53% 30.02 in 10.0 mi SSE 9.2 mph - N/A   Clear
10:34 PM 17.6 °F 5.7 °F 3.2 °F 53% 30.01 in 10.0 mi SSE 10.4 mph - N/A   Clear
10:54 PM 17.6 °F 5.7 °F 1.4 °F 49% 30.01 in 10.0 mi SSE 10.4 mph - N/A   Clear
11:14 PM 17.6 °F 4.3 °F 3.2 °F 53% 30.01 in 10.0 mi SSE 12.7 mph - N/A   Clear
11:34 PM 15.8 °F 2.1 °F 3.2 °F 58% 30.01 in 10.0 mi SSE 12.7 mph - N/A   Clear
11:54 PM 17.6 °F 3.7 °F 1.4 °F 49% 30.00 in 10.0 mi South 13.8 mph - N/A   Clear